User: anonymous   Login
Location: Caltech
(34.1382°N, 118.1253°W)
Time: 15:32:05
(UTC-07:00)
Language:

Iridium 65 - Orbit

View from above orbital plane
View from above orbital plane
View from above satellite
View from above satellite

Ground track
Ground track

The orbit data is extracted from the following two-line orbital elements,

1 25288U 98021D   16147.50580130  .00000091  00000-0  25545-4 0  9991
2 25288  86.3980  25.5175 0002244  89.5795 270.5658 14.34217119949593
Epoch (UTC): 26 May 2016 12:08:21
Eccentricity: 0.0002244
inclination: 86.3980°
perigee height: 776 km
apogee height: 779 km
right ascension of ascending node: 25.5175°
argument of perigee: 89.5795°
revolutions per day: 14.34217119
mean anomaly at epoch: 270.5658°
orbit number at epoch: 94959

The dashed part of the orbit path shows where the satellite is in the earth's shadow,  

DLR